Theta_e
298 302 305 307 307 305 303 303 305 309 312 317 321 323 323 323 325 329 331 331 330 327 324 323 321 322 325 326 325 323 320 321 327 328 328 327 328 328 329 328 329 330 331 332 331 331 331 329 327 326 325 325 325 324 325 323 323 326 326 326 328 328 324 320 319 322 324 325 325 326 326 323 326 325 324 326 325 325 325 323 322 320 318 319 320 320 323
298 302 306 307 306 305 303 303 305 309 312 314 318 325 323 320 324 328 330 332 331 327 323 322 322 324 325 324 323 323 321 322 328 329 328 329 329 330 330 328 329 330 331 331 331 330 329 329 328 328 329 329 327 325 324 323 325 328 329 329 327 325 323 321 320 322 322 322 322 325 326 325 326 326 326 327 326 327 329 326 323 320 318 318 320 320 322
299 303 306 307 305 304 303 302 304 309 312 313 317 324 325 323 326 327 328 330 330 327 323 323 325 326 326 326 324 322 321 322 327 328 328 328 329 329 329 327 327 332 333 332 332 329 329 330 330 329 330 331 330 326 325 323 324 327 330 330 327 324 324 322 320 320 322 321 320 321 324 324 325 326 326 326 326 328 329 324 319 318 319 319 319 320 322
299 303 305 305 304 303 302 301 303 309 313 314 317 324 327 326 325 324 325 327 326 325 324 323 325 326 327 328 325 322 324 323 324 326 327 328 329 328 328 327 327 331 333 333 332 331 330 331 332 330 330 331 328 325 325 324 326 331 332 328 326 326 326 326 324 322 322 320 321 325 325 323 323 323 324 326 327 330 329 322 317 320 320 318 320 322 322
300 303 305 304 303 302 302 302 303 309 314 316 318 325 327 325 324 324 326 326 323 322 323 322 324 328 329 329 325 322 325 325 324 325 326 328 329 328 327 328 329 331 332 332 333 331 330 331 332 331 330 329 327 327 326 326 330 335 331 326 328 327 325 329 329 325 325 324 324 327 326 323 322 321 321 325 326 327 324 319 321 324 320 317 323 325 321
300 302 304 304 302 301 302 302 302 309 315 317 320 327 324 321 325 327 328 329 326 323 324 325 327 327 328 328 326 323 324 326 327 327 327 328 328 328 329 330 331 332 331 333 334 333 332 332 334 334 332 330 330 330 327 326 329 331 328 327 332 328 324 329 330 325 327 327 325 327 326 324 324 323 323 324 324 326 326 324 327 327 320 319 324 325 323
300 302 304 304 302 301 301 302 302 308 315 319 323 329 327 325 328 329 329 330 328 327 329 330 329 328 329 328 326 325 326 327 327 327 330 331 329 328 330 332 331 331 330 333 335 334 333 334 334 335 333 331 331 331 330 328 328 328 329 330 332 329 326 329 328 325 326 326 326 327 325 325 328 327 325 324 323 325 327 327 329 328 324 324 327 327 328
300 301 303 304 303 302 301 302 301 306 315 322 325 327 326 327 330 332 331 328 326 329 331 330 328 330 332 330 326 324 327 328 327 327 329 332 331 329 330 331 330 330 331 333 335 333 332 334 335 333 333 332 331 331 331 329 328 328 329 331 332 329 328 329 328 324 324 325 326 326 326 326 326 325 326 325 324 325 327 328 330 330 327 327 329 329 329
301 301 302 303 304 303 302 302 301 303 313 323 325 321 321 323 327 330 331 329 328 328 329 328 328 329 329 329 328 328 328 327 328 328 326 329 331 329 329 330 331 331 332 333 333 331 330 331 331 330 330 330 329 329 330 329 329 329 330 332 333 330 328 328 327 324 323 324 325 326 327 324 321 324 331 331 327 328 330 330 333 333 331 328 326 326 327
302 302 302 302 303 304 304 303 302 302 308 319 324 318 317 321 326 328 330 330 329 327 326 327 329 328 329 329 329 329 327 326 327 328 326 328 329 327 328 329 330 332 334 333 331 329 327 326 326 326 327 327 327 328 327 327 327 328 331 332 331 330 328 326 325 324 322 325 327 328 327 323 322 328 333 333 332 333 333 333 335 337 336 332 328 328 329
303 303 303 303 303 304 304 304 304 303 305 313 319 318 314 316 322 326 330 329 327 326 327 328 328 329 330 328 328 329 329 327 328 328 328 329 329 327 328 329 329 331 332 330 327 326 325 324 324 324 324 325 325 326 326 327 327 328 330 332 332 331 328 327 326 324 323 325 328 328 326 323 327 334 335 332 334 334 334 335 336 337 337 336 334 333 332
304 303 303 304 304 305 305 305 305 304 304 309 316 318 313 313 319 326 330 329 326 326 329 330 330 330 330 328 328 330 330 329 328 329 329 330 328 326 327 328 329 329 328 325 324 324 324 324 325 324 324 324 324 324 325 326 328 329 330 333 336 334 329 328 327 324 324 326 326 328 328 328 332 336 335 334 334 332 332 334 334 335 335 336 337 336 334
304 304 303 304 304 305 305 305 304 305 305 308 315 319 314 312 317 326 331 330 328 328 329 329 329 329 330 330 328 329 329 328 328 328 328 329 330 329 326 326 326 325 324 322 322 324 326 326 326 326 327 326 325 326 327 328 330 333 333 335 337 334 330 329 327 324 326 326 325 328 330 331 334 337 336 335 334 333 334 335 334 335 335 335 336 335 334
304 303 303 303 304 304 305 305 305 305 305 307 314 318 315 312 315 322 328 330 328 327 328 327 327 328 330 330 329 330 331 329 326 327 327 328 329 328 324 324 325 323 322 323 323 325 328 326 323 322 324 325 324 324 330 332 331 331 332 333 333 331 330 329 326 326 325 323 323 325 328 331 337 339 337 335 334 334 335 336 335 334 333 333 334 334 334
304 304 303 303 303 304 304 305 305 305 305 308 313 317 315 313 314 319 325 328 328 328 329 326 325 329 330 329 329 330 331 329 326 328 328 327 328 327 323 324 324 322 322 323 324 326 326 323 318 317 321 326 325 324 328 331 329 328 329 329 330 331 332 330 327 326 324 323 322 324 326 331 336 338 336 335 333 333 334 335 334 334 333 332 333 334 335
305 304 304 303 303 303 304 304 304 305 305 307 312 317 316 312 314 318 322 325 327 328 329 326 326 329 330 328 329 330 330 328 326 327 328 328 328 327 325 323 323 324 323 322 324 326 325 323 318 317 323 328 328 327 328 330 331 330 328 328 329 330 332 332 327 323 323 322 322 324 329 334 337 337 335 333 332 331 333 335 335 334 333 332 332 333 333
305 305 304 303 303 303 303 304 304 304 305 306 311 317 315 311 313 317 321 325 326 324 324 324 325 328 328 326 327 329 328 328 327 327 328 329 328 326 324 323 323 324 322 321 324 324 322 321 318 319 325 329 327 327 328 327 328 329 328 329 332 331 332 332 326 323 324 323 322 328 335 337 336 335 333 332 332 332 334 336 335 334 334 333 332 333 332
304 305 304 304 303 303 303 304 304 304 305 307 311 316 315 312 314 318 322 327 325 321 321 321 323 326 326 326 327 328 328 328 328 328 328 327 325 324 323 322 322 325 324 323 325 324 321 320 318 319 325 328 326 328 329 327 326 328 329 330 331 332 332 331 326 326 329 328 326 330 334 334 333 334 333 331 332 332 334 335 335 334 334 333 332 332 331
304 304 304 304 303 302 302 304 304 304 305 307 311 316 315 312 313 318 322 326 324 320 320 320 320 322 323 323 324 324 325 326 327 326 325 325 324 323 321 321 322 325 326 324 324 322 320 321 323 323 324 326 326 327 327 326 326 329 329 328 329 330 330 329 328 329 330 329 327 330 333 332 332 332 332 331 333 335 334 333 333 333 333 333 333 332 331
304 304 304 303 303 302 302 303 304 304 305 307 312 316 315 312 313 316 319 324 325 321 318 317 317 318 318 318 319 320 322 323 324 324 325 325 323 321 322 325 325 326 326 325 326 325 322 322 326 325 323 324 326 325 324 325 327 329 328 328 330 330 328 327 330 331 329 327 329 332 333 332 330 331 332 332 334 334 332 331 332 332 331 332 333 332 331
304 304 304 303 303 302 301 302 303 304 305 307 312 316 315 311 311 313 316 320 323 320 316 316 316 316 316 315 316 317 319 320 321 323 324 324 322 322 324 327 328 326 325 326 327 327 324 324 326 326 324 326 328 326 323 323 325 328 328 328 330 331 329 329 330 331 330 330 331 332 332 331 329 330 331 331 331 331 330 329 331 332 331 331 332 332 332
302 303 304 303 303 302 301 301 302 304 304 306 311 316 315 310 309 310 314 319 320 316 315 315 315 315 315 314 315 316 316 317 318 320 323 324 324 323 324 326 326 324 323 325 326 327 326 325 325 325 324 325 326 325 322 321 323 326 328 328 330 331 331 330 330 329 330 331 331 331 330 329 328 329 330 330 329 329 329 329 330 331 330 330 330 330 330
299 302 304 303 302 302 301 301 301 303 304 305 309 315 315 311 308 310 314 318 317 314 316 317 315 315 314 313 314 314 314 315 316 318 320 323 324 323 323 324 324 323 324 323 324 326 326 323 322 322 322 321 322 322 320 321 325 327 328 328 329 330 328 329 329 328 328 328 328 329 329 328 328 329 329 329 329 328 329 328 328 328 328 327 327 326 327
297 299 303 303 302 302 301 300 301 303 304 305 308 313 315 311 309 312 315 316 315 314 314 314 314 314 312 312 313 313 313 314 315 316 318 320 322 323 323 322 323 324 324 322 322 324 324 321 320 321 320 320 321 320 319 322 325 327 328 328 328 327 326 327 328 328 328 327 328 329 329 329 329 329 328 328 328 327 327 327 327 327 326 325 324 324 324
296 298 301 303 303 302 301 300 300 302 304 305 307 313 316 311 308 311 314 316 317 317 314 312 312 312 311 312 313 312 313 314 314 316 317 317 320 322 322 322 322 322 322 322 322 322 321 318 319 320 320 321 321 319 320 322 323 324 327 328 327 327 326 326 326 327 328 328 328 328 328 328 329 328 327 327 327 326 326 325 325 325 325 324 323 323 323
296 296 299 302 302 302 301 300 300 302 304 305 306 311 316 312 308 309 312 315 318 319 314 310 311 311 311 313 312 312 314 314 314 316 317 316 318 320 320 320 321 320 321 322 321 320 318 316 317 319 321 321 320 319 319 322 323 325 326 326 326 326 326 325 325 326 328 328 328 328 328 328 328 327 327 327 326 325 325 324 324 324 323 323 323 323 323
297 295 297 300 302 302 301 300 300 302 304 306 308 312 316 314 308 306 309 314 319 319 314 310 310 311 312 312 312 313 314 315 316 317 317 317 317 318 319 320 320 320 320 321 320 318 317 317 318 319 321 322 321 319 321 322 324 326 326 325 324 325 325 324 325 326 327 327 327 328 328 328 328 327 327 326 326 325 325 324 323 322 322 321 322 322 322
297 294 295 298 300 301 301 300 300 302 304 307 311 316 318 315 309 305 305 310 317 319 317 314 310 311 313 311 311 313 313 315 316 317 316 317 317 317 318 319 318 319 319 318 318 316 317 318 318 318 321 322 321 320 321 322 324 326 326 325 323 324 324 324 325 325 326 327 327 327 328 327 327 326 326 326 325 324 324 324 323 322 321 321 320 320 319
296 294 294 296 298 301 301 300 301 303 305 308 313 318 320 316 310 305 303 307 313 318 319 315 310 310 312 312 312 313 313 314 316 316 316 316 316 316 317 317 316 317 318 317 316 316 316 317 317 318 321 320 318 318 319 320 323 326 327 325 323 324 324 323 324 325 326 326 326 326 327 326 326 325 325 324 324 323 322 321 321 321 320 320 319 318 317
294 293 293 295 297 300 300 300 301 305 307 309 313 318 319 316 311 305 302 305 311 317 318 314 310 309 310 311 312 313 313 314 316 316 316 316 316 315 316 317 316 317 317 317 316 315 315 315 316 318 321 319 316 318 318 319 322 325 325 324 323 324 323 322 323 324 324 325 324 325 325 325 324 324 323 323 322 322 321 320 320 319 319 318 317 316 316
293 293 293 294 297 300 299 300 302 306 308 311 312 313 313 312 309 305 302 304 311 317 318 314 310 309 310 311 311 312 312 312 314 315 315 316 317 317 316 316 317 318 317 317 316 314 314 316 317 319 321 318 316 317 318 318 322 324 324 323 323 323 322 322 322 322 323 323 323 323 324 323 323 323 322 321 321 320 320 320 320 319 318 317 316 315 315
293 294 295 295 298 299 299 300 303 306 309 310 309 308 308 307 305 304 302 305 313 318 317 312 309 308 310 311 310 310 312 313 313 314 314 314 315 316 316 316 317 317 315 314 314 314 315 316 316 317 320 319 317 317 320 322 323 324 325 324 323 322 321 321 321 320 321 321 323 324 324 323 322 322 321 319 319 319 319 319 319 318 317 316 315 314 313
295 296 296 296 298 298 298 300 304 308 310 309 308 310 310 307 304 303 303 308 315 319 316 311 308 307 309 310 310 310 311 314 315 315 314 313 313 315 316 316 315 316 315 313 314 316 315 315 316 317 319 319 318 318 322 324 324 323 323 322 321 321 320 320 320 320 320 320 322 324 324 322 321 320 320 319 319 319 318 318 318 317 316 315 313 313 312
295 296 296 297 297 297 299 301 305 309 312 313 313 314 311 306 304 303 304 311 319 319 312 310 309 308 309 311 311 310 310 312 314 313 313 314 313 312 315 316 315 314 314 314 313 315 315 316 316 315 316 319 318 317 319 322 322 321 321 321 321 321 320 319 319 319 319 319 320 321 321 320 320 319 319 318 317 317 317 316 316 315 315 313 312 311 311
295 296 296 296 297 299 302 305 308 312 316 315 314 312 307 304 303 303 305 313 321 318 310 309 309 308 310 312 312 311 311 311 312 311 311 312 312 311 312 314 313 314 315 314 313 314 316 316 314 313 315 318 318 315 317 320 321 320 320 320 319 320 321 320 318 317 317 318 318 318 319 319 318 317 316 316 315 315 315 314 314 313 313 312 311 312 311
297 298 298 299 303 306 309 310 309 311 313 311 308 306 303 302 303 304 305 311 317 317 313 312 312 310 310 312 312 311 311 312 312 312 311 311 312 312 311 310 311 313 315 314 313 314 317 316 314 313 314 317 317 317 319 320 320 320 319 319 318 319 320 319 318 317 316 316 316 316 317 317 316 315 314 314 313 313 313 313 312 312 312 312 311 311 311
301 301 301 305 310 311 312 313 312 309 306 302 301 303 305 306 308 310 312 315 318 317 315 315 315 311 309 311 312 311 311 312 313 312 312 310 310 310 309 308 309 311 311 311 312 314 315 315 314 312 312 315 318 319 320 319 319 319 319 318 317 317 318 317 317 317 317 316 316 315 315 314 314 313 313 313 313 312 312 312 312 312 312 311 311 311 310
304 305 306 310 312 311 310 313 311 305 301 302 305 309 312 312 312 313 314 314 314 314 313 314 314 312 309 312 313 311 311 313 313 312 312 310 309 310 310 309 309 309 308 309 312 313 313 311 311 311 312 316 319 320 318 318 318 318 317 317 317 317 316 316 317 317 317 316 316 315 314 314 313 312 312 312 312 312 312 312 312 312 312 311 311 311 310
306 308 310 312 310 308 307 307 304 301 304 310 313 312 312 310 308 308 309 307 308 310 311 312 313 312 312 314 314 312 311 313 314 314 313 310 309 310 309 308 309 309 307 308 311 312 311 310 310 311 313 315 318 318 317 317 318 317 317 317 316 316 316 316 316 317 317 316 315 313 313 314 313 312 312 312 312 312 312 312 312 311 311 310 310 310 310
307 309 311 309 306 306 305 305 305 307 310 312 311 307 305 306 306 306 307 306 307 309 310 311 312 312 312 312 313 313 313 313 313 314 313 311 310 309 309 308 308 308 306 307 310 312 311 309 310 311 311 313 317 318 317 317 317 317 317 316 316 316 316 315 315 316 315 314 313 313 312 313 313 312 312 312 311 311 311 311 311 310 310 309 309 308 309
304 305 306 304 303 304 306 308 310 312 309 306 304 305 304 305 306 306 305 305 307 309 310 310 311 312 312 311 312 313 314 313 313 312 311 310 310 309 308 308 309 307 306 307 310 311 310 308 308 308 309 312 317 318 317 317 317 317 316 316 316 315 315 315 314 314 313 312 312 313 313 312 312 311 311 311 311 310 310 310 310 310 310 309 309 309 308
300 301 303 304 305 307 309 310 310 308 305 303 304 305 304 304 305 306 306 306 308 310 310 310 311 313 314 312 310 311 313 313 312 310 309 309 309 309 308 308 308 307 307 308 309 310 309 308 308 308 308 311 316 318 317 317 317 316 316 316 316 315 315 314 313 312 313 313 313 313 312 312 311 310 310 309 310 309 309 309 309 309 309 308 308 307 307
304 305 306 308 308 307 307 306 306 305 304 304 304 304 304 305 305 306 306 307 308 309 310 310 310 311 312 311 309 310 312 312 311 309 309 309 309 308 307 307 307 307 308 309 309 309 309 308 308 308 308 310 315 317 317 316 317 316 316 316 316 315 314 314 313 313 313 313 313 312 312 311 311 310 309 308 309 309 308 308 307 307 307 307 306 307 307
308 307 306 305 304 303 304 304 305 305 305 304 304 304 304 304 305 306 307 308 309 309 309 310 309 309 310 311 311 311 312 311 310 309 308 308 308 308 307 307 307 308 309 309 309 309 308 308 308 308 308 310 314 316 316 316 316 317 316 316 316 315 314 313 313 313 312 312 312 311 311 310 310 309 308 308 308 308 308 308 307 305 305 306 306 307 306
306 303 302 301 300 301 302 303 304 304 304 304 305 305 305 306 308 308 308 309 310 310 309 309 310 309 309 310 310 310 310 310 310 309 308 308 308 308 308 308 308 308 308 308 308 308 308 308 308 308 309 309 312 314 315 315 316 316 316 316 315 314 313 313 313 312 312 311 311 310 309 309 309 309 308 308 307 307 306 307 307 306 306 306 306 306 306
301 300 301 301 300 300 302 302 303 304 304 305 306 306 307 309 310 310 309 309 309 309 309 309 309 308 308 309 309 309 309 310 309 309 308 308 308 308 308 308 308 308 308 308 308 307 307 307 308 308 308 309 311 313 314 315 315 315 315 315 314 313 313 313 312 312 311 311 310 310 309 309 309 308 308 308 307 306 306 306 306 305 305 305 305 305 306
300 300 301 300 299 299 301 302 302 303 305 306 307 308 308 308 308 308 308 308 307 308 308 308 308 308 308 307 307 308 309 309 308 308 308 308 308 308 308 308 307 307 308 308 308 307 307 307 308 309 310 310 311 313 314 314 314 314 314 314 313 312 312 312 312 312 311 311 311 310 310 309 308 308 307 307 306 306 306 306 306 305 305 305 305 305 304
300 300 299 298 298 300 301 302 303 305 306 306 306 306 307 306 305 306 308 308 307 308 308 308 308 307 307 307 307 307 307 307 307 307 307 307 308 308 307 307 307 307 307 307 308 308 307 308 309 310 311 312 312 312 313 314 314 314 313 312 312 312 311 311 311 311 311 311 310 310 309 308 308 307 307 306 306 307 306 306 306 306 305 305 304 304 304
300 300 300 299 300 301 302 302 304 305 305 305 305 306 306 305 305 307 308 308 307 307 308 307 307 306 306 306 306 306 306 307 307 307 307 307 307 307 307 307 307 308 308 308 307 307 308 308 309 311 312 312 311 311 312 312 313 313 313 312 312 312 312 312 311 311 311 310 310 309 308 308 307 307 307 306 306 306 306 306 306 306 305 304 304 304 304
299 300 300 299 299 300 302 302 303 303 304 304 305 306 306 305 306 307 308 307 307 307 307 306 306 305 305 305 304 304 304 305 306 306 306 307 307 307 307 308 308 307 308 307 307 308 308 308 309 310 311 311 311 311 311 311 311 312 312 313 312 312 312 312 311 311 310 310 309 308 308 308 307 307 306 306 306 306 305 305 305 305 304 304 304 304 303
299 299 299 299 299 300 302 303 303 304 304 305 305 306 306 307 307 307 307 307 307 306 305 305 305 305 304 305 304 304 304 304 304 305 306 306 306 306 307 308 308 307 307 308 308 308 308 308 309 310 310 311 311 311 310 310 311 311 311 312 312 312 311 311 311 310 310 309 309 308 308 308 307 307 306 306 305 305 305 304 304 303 303 304 304 304 304
298 298 299 300 301 301 302 302 303 304 304 304 304 305 306 306 307 307 307 306 305 305 305 304 304 303 304 304 305 305 305 305 304 305 305 305 305 306 306 307 307 308 308 308 308 308 308 309 310 310 310 310 310 310 310 310 310 310 311 311 311 311 311 311 310 310 309 309 308 308 308 307 307 307 306 306 306 305 304 304 304 304 304 304 304 304 303
Wind_Speed
29 29 29 30 31 32 34 34 31 29 25 14 8 8 5 5 3 6 13 15 14 8 6 7 7 8 6 8 11 6 3 4 6 11 6 4 5 2 4 2 1 3 2 1 2 3 3 8 6 6 8 8 7 3 3 7 6 2 1 4 5 4 3 1 1 2 6 6 5 8 8 5 4 3 1 2 2 3 4 3 0 2 2 1 0 2 0
29 29 29 30 31 32 34 35 31 26 22 15 9 6 4 5 3 5 9 12 11 7 7 7 7 7 7 8 9 4 4 2 8 7 4 4 3 2 2 1 2 2 2 4 6 5 7 8 5 5 4 5 10 5 1 5 3 4 4 3 2 3 2 2 2 2 2 2 3 4 4 3 2 1 3 6 4 5 5 4 1 2 2 2 2 1 1
29 29 30 30 32 33 33 35 32 26 20 12 5 4 4 5 2 3 6 9 8 8 8 6 6 7 9 10 8 6 4 1 7 8 4 2 1 2 1 2 3 2 4 8 10 8 7 4 4 4 2 3 12 7 3 5 2 8 6 4 3 3 3 2 1 1 1 1 2 2 4 3 3 3 4 7 4 5 3 4 2 1 3 3 3 1 1
29 29 30 31 32 33 34 35 32 27 20 11 3 6 4 3 4 4 5 7 7 8 7 8 8 5 6 8 8 8 4 4 7 6 4 2 0 1 2 4 5 3 2 9 7 2 5 5 4 5 4 1 7 10 8 4 7 8 4 5 4 3 4 2 3 1 3 2 2 3 5 5 6 6 3 5 7 4 5 3 2 1 3 3 2 3 2
29 29 30 32 34 34 34 34 33 27 19 9 3 5 4 4 4 1 1 4 6 7 8 8 8 2 2 4 7 8 6 4 5 4 2 3 3 2 2 3 5 3 3 7 7 5 5 5 6 7 7 4 6 11 10 9 14 10 5 6 5 2 3 2 4 4 4 4 5 6 6 7 9 9 4 5 9 5 2 4 1 2 2 2 2 2 2
29 29 30 32 35 36 35 35 33 27 17 7 3 3 4 4 2 3 2 2 3 5 6 6 6 3 4 5 8 9 7 4 3 1 2 4 4 2 2 3 5 8 10 8 6 6 5 5 6 6 7 6 7 9 8 7 12 10 6 9 6 2 3 4 3 5 5 8 9 7 7 10 10 9 5 4 7 6 6 6 1 2 4 2 2 3 4
29 29 29 31 34 36 37 36 33 28 17 5 5 3 4 3 2 2 5 5 4 5 6 8 7 4 5 6 7 9 7 2 4 3 4 4 5 4 4 5 6 10 11 4 4 5 5 4 4 5 6 6 4 5 5 4 9 8 7 8 5 2 3 7 9 7 6 8 7 4 8 9 7 10 9 5 5 6 6 6 5 3 6 3 4 5 6
29 29 29 30 33 36 38 37 35 31 18 5 3 3 5 4 2 3 6 6 5 5 6 7 5 2 6 8 8 8 6 1 4 3 3 4 1 3 5 5 3 8 9 2 2 1 2 3 2 2 4 5 3 2 3 3 6 7 5 4 4 2 2 5 6 6 7 9 8 6 7 7 7 10 11 9 8 8 9 10 10 8 8 8 8 6 6
29 29 29 29 31 34 37 39 38 32 22 10 4 6 8 8 5 2 4 4 4 4 5 5 4 2 3 5 6 5 2 1 3 1 2 5 6 3 5 5 1 4 6 3 3 4 6 7 5 4 4 4 3 1 2 2 2 2 3 2 2 2 3 4 4 3 5 7 8 7 8 8 7 9 14 15 11 10 10 10 12 12 12 10 7 6 5
29 30 30 30 30 32 35 38 38 34 25 15 7 7 11 10 5 2 2 3 4 4 3 3 4 4 1 1 7 9 3 1 0 3 2 2 1 3 5 6 4 3 3 2 4 7 8 8 7 6 7 8 8 6 5 6 5 1 1 1 1 1 1 2 2 1 4 6 10 11 9 7 4 7 13 14 12 14 13 12 14 16 13 8 6 6 6
30 30 30 30 31 31 33 35 37 35 28 17 8 7 12 10 5 3 2 3 3 3 2 3 3 6 4 1 7 12 5 3 2 2 1 2 2 4 5 1 3 2 2 4 6 9 10 10 9 8 9 11 11 8 9 10 7 3 3 3 1 2 2 1 0 0 3 6 10 10 7 3 1 5 9 11 12 14 13 11 14 15 12 10 8 9 10
30 31 31 31 31 31 32 33 35 34 28 17 8 6 12 11 6 3 2 3 2 3 2 2 2 7 10 5 7 9 6 4 3 3 1 2 3 4 4 2 1 3 2 5 7 9 11 11 11 11 10 11 11 10 12 12 7 2 1 3 1 3 3 1 1 1 3 4 6 5 4 0 3 4 9 10 11 12 10 11 13 15 14 14 12 12 13
29 31 31 31 31 31 31 32 34 33 29 19 9 6 12 13 7 3 2 2 1 3 3 1 4 7 10 11 8 7 7 5 2 2 1 2 4 2 2 2 3 2 3 5 7 8 9 8 6 6 4 5 6 8 9 7 1 2 1 3 3 3 3 0 1 2 1 1 1 1 1 2 5 6 9 9 8 10 8 8 13 16 15 14 13 12 13
29 30 31 32 32 31 32 32 33 33 29 21 10 6 10 13 8 3 3 2 1 2 4 2 4 6 6 10 12 12 9 4 1 2 3 2 3 4 3 4 4 3 4 5 6 6 4 4 5 3 1 2 3 2 7 9 5 3 1 4 6 5 3 1 2 2 2 3 2 1 1 2 4 6 9 8 7 8 5 3 9 14 14 12 12 12 13
28 29 30 32 32 32 32 32 32 33 30 22 11 5 8 13 9 4 4 2 0 2 4 2 5 7 5 5 5 5 7 4 2 4 6 6 5 6 5 3 5 5 6 6 5 4 2 2 4 4 2 3 4 2 4 4 4 7 7 2 4 0 2 1 4 3 2 5 5 2 2 1 3 6 8 8 8 9 6 0 4 10 13 12 11 11 12
26 28 29 31 32 32 33 32 32 33 31 25 15 6 8 14 11 5 5 2 1 1 1 6 9 4 3 1 2 3 4 3 3 2 3 4 6 8 6 3 3 5 7 6 4 3 3 2 3 3 2 2 3 3 1 1 2 4 6 6 8 4 2 2 4 4 3 5 5 3 1 1 4 8 8 6 7 8 6 2 2 8 12 12 10 10 11
24 26 28 30 31 32 33 32 32 32 30 27 19 8 8 16 14 6 5 4 2 2 0 2 4 3 0 1 1 0 1 1 2 3 2 3 5 7 6 4 2 3 6 6 4 3 3 3 4 2 3 2 2 2 1 2 2 2 3 6 8 5 3 3 3 4 3 4 3 1 1 1 6 10 10 8 7 6 4 2 1 5 7 10 12 11 11
23 25 27 29 30 31 32 32 32 32 30 27 20 9 7 15 16 9 5 5 2 3 3 5 3 3 2 2 2 1 2 3 1 3 4 3 3 6 8 5 3 3 5 5 4 3 3 3 3 3 2 1 4 2 0 2 2 2 3 4 4 2 2 1 2 1 3 3 2 1 2 2 9 12 12 12 10 6 2 2 2 3 3 5 8 12 13
22 23 25 28 29 30 31 31 32 32 30 28 21 11 8 15 18 13 6 4 2 4 4 7 7 5 3 1 2 1 1 3 1 2 3 1 3 8 8 5 7 6 5 5 4 4 4 3 3 3 1 1 3 2 1 2 2 2 3 4 3 2 2 0 1 2 2 1 1 1 2 3 10 12 11 11 7 2 1 3 3 4 5 3 4 9 12
21 22 24 26 28 29 30 30 31 31 29 27 22 13 9 14 17 14 8 5 3 3 5 7 9 8 9 8 6 6 6 3 2 3 2 3 4 8 6 2 4 5 5 5 4 4 4 4 4 3 2 3 3 3 3 2 4 5 4 2 3 4 4 2 4 4 4 2 3 2 1 5 12 12 8 8 5 1 2 4 3 5 8 6 5 7 9
21 21 23 24 26 27 28 28 30 30 28 26 22 13 11 15 17 14 10 7 5 2 4 6 9 10 10 11 10 9 9 7 6 5 3 3 4 5 3 2 1 3 3 3 3 3 4 4 4 4 3 2 1 4 5 2 3 6 6 4 4 6 5 3 4 4 4 3 3 2 1 5 9 8 5 6 6 3 4 5 4 4 6 6 5 7 8
20 20 21 23 24 25 27 27 28 28 27 26 22 15 13 18 20 16 11 7 4 2 2 2 5 8 9 11 10 9 9 10 8 7 6 5 4 3 4 3 2 2 4 4 2 2 3 3 3 3 3 2 1 3 6 4 1 5 8 6 4 4 3 2 4 5 4 2 2 1 2 3 5 6 5 6 7 7 7 6 4 3 4 5 6 7 8
20 20 20 21 22 23 24 25 26 27 25 24 22 17 15 18 21 18 12 6 2 0 0 1 2 4 7 9 8 7 8 9 9 9 8 6 4 3 5 4 5 4 4 5 4 2 3 4 4 4 3 4 4 4 5 4 3 3 5 4 2 3 4 3 2 3 4 4 3 2 2 4 5 5 5 5 6 7 7 7 6 5 6 6 7 8 9
20 19 19 20 21 22 23 23 23 25 24 21 19 15 13 16 21 20 13 6 2 0 0 1 1 2 5 6 6 7 8 8 7 7 7 7 6 3 5 6 5 4 5 6 4 3 3 4 4 4 3 4 5 5 4 4 4 3 4 3 2 4 5 4 3 2 3 3 4 4 3 4 6 5 4 5 6 7 7 7 7 7 7 8 8 9 10
20 19 18 19 20 20 21 21 21 22 23 20 17 14 12 15 22 19 10 5 4 2 1 3 4 3 3 3 4 7 7 6 5 6 6 8 7 5 5 6 5 3 4 5 4 4 4 3 4 4 3 4 4 5 4 4 4 4 4 3 2 3 3 2 5 4 2 3 4 4 3 2 4 5 5 5 6 7 7 7 8 8 9 9 9 9 9
21 20 18 18 19 19 19 20 19 19 20 19 15 13 11 14 20 19 10 5 5 3 1 3 4 2 2 3 4 5 4 4 5 5 4 5 7 6 5 5 4 3 4 4 3 4 3 3 4 4 4 4 4 5 4 5 6 5 5 4 2 2 2 2 5 4 2 2 2 3 2 1 4 6 6 5 6 6 7 8 8 10 10 10 10 10 10
21 20 19 18 18 18 18 18 17 17 18 17 13 9 8 10 16 19 14 8 5 2 0 3 4 2 3 5 4 3 4 4 4 3 3 3 5 5 4 4 4 5 4 3 3 3 3 3 3 3 4 4 5 5 3 4 6 6 5 4 3 1 3 4 3 3 2 1 2 4 2 0 3 6 6 6 6 6 6 7 8 9 10 10 10 10 10
20 20 19 17 17 16 16 17 16 15 15 15 11 7 5 4 11 19 18 11 5 3 3 2 2 2 2 4 4 4 4 4 4 4 3 3 4 3 4 4 4 4 4 4 4 4 3 4 3 3 4 5 4 4 3 3 5 6 5 5 5 5 5 5 3 3 3 1 1 3 2 2 2 4 5 6 5 6 7 8 8 8 8 8 8 9 9
19 19 18 16 16 15 14 15 15 13 14 15 11 6 2 2 7 18 21 14 7 5 5 3 1 2 1 4 6 5 5 4 3 3 2 2 2 2 2 2 3 4 4 3 4 4 3 4 4 3 4 3 3 4 4 2 4 4 3 4 6 5 5 6 5 4 4 4 4 4 4 4 4 4 5 5 5 6 7 7 8 8 8 8 8 8 9
18 18 16 15 14 13 12 14 14 12 14 16 10 6 3 3 4 16 22 15 8 6 4 3 2 2 2 3 5 5 5 5 4 4 3 2 2 2 1 1 1 2 2 2 2 3 3 3 3 2 4 4 3 3 4 3 3 2 2 3 6 6 6 6 5 4 4 5 5 4 5 5 6 5 5 5 5 5 6 6 6 7 7 8 8 8 9
16 16 14 12 12 11 11 12 11 11 15 16 9 3 1 1 6 17 21 15 8 5 4 3 1 1 2 1 1 5 5 5 2 2 3 2 2 2 3 2 1 1 3 2 2 3 3 2 3 3 4 4 2 3 4 3 3 1 2 2 5 6 5 6 5 5 5 5 4 4 5 4 4 4 4 5 5 4 3 4 4 3 3 6 8 8 8
14 13 12 10 10 10 9 8 8 9 12 12 7 3 2 5 12 19 19 13 7 4 4 3 1 0 1 2 2 2 4 2 1 2 1 3 3 2 2 2 2 2 3 2 2 3 2 3 4 4 3 2 2 3 3 4 3 1 2 1 5 5 5 5 5 5 5 4 3 3 4 4 5 5 5 5 5 5 4 5 5 3 3 5 8 9 9
12 11 10 9 9 9 7 5 4 5 6 5 2 1 3 10 16 17 14 10 6 5 4 4 2 0 1 1 2 1 2 3 2 2 2 3 3 2 0 1 2 1 1 0 2 2 1 2 3 3 1 1 3 2 2 3 3 2 2 3 4 4 4 4 4 5 6 6 4 3 4 5 6 5 4 4 4 5 5 6 5 5 6 7 9 9 9
11 9 8 8 8 7 5 3 3 4 5 4 0 1 6 13 15 13 10 8 5 5 3 3 3 1 0 2 3 2 4 4 1 1 2 3 2 3 1 1 1 0 1 1 2 2 2 1 2 2 2 1 0 2 2 2 3 3 3 5 3 2 3 4 4 4 4 4 4 5 5 4 4 3 3 2 2 3 4 4 5 5 6 7 8 7 8
9 8 7 5 4 2 1 2 3 5 5 2 2 4 11 14 12 8 7 6 3 3 1 1 3 3 2 2 3 3 4 4 2 2 2 2 1 3 3 1 0 1 1 0 2 3 2 0 1 2 2 0 1 1 1 3 5 3 3 4 4 2 2 3 4 5 4 4 4 5 4 3 3 3 3 3 4 5 5 6 6 6 5 5 5 6 6
7 5 3 1 0 2 2 1 2 4 3 4 6 10 11 9 6 5 4 3 3 3 2 2 3 3 3 1 4 3 3 3 0 1 1 1 0 1 2 2 2 1 2 1 4 4 1 1 1 3 3 2 1 1 2 4 4 4 4 4 4 3 3 3 3 4 5 5 4 4 4 3 3 3 4 5 5 4 4 4 5 5 5 5 5 5 5
4 4 2 2 2 4 3 2 3 4 7 9 11 11 7 4 3 3 2 3 3 3 3 4 3 2 3 2 3 2 2 2 1 1 1 2 1 1 2 2 2 2 2 4 4 2 1 2 1 5 4 2 1 3 5 4 3 4 5 3 2 3 4 4 2 2 4 4 3 2 3 3 3 3 3 3 3 3 3 4 4 4 4 4 4 4 4
5 5 6 6 5 2 1 2 3 8 10 10 8 6 3 3 3 2 2 2 2 3 3 5 2 1 2 1 2 3 3 3 2 0 2 2 1 0 0 2 1 1 3 4 1 1 1 0 2 5 4 1 3 4 4 4 4 4 4 3 2 3 4 4 2 1 1 2 2 1 2 2 2 2 2 2 2 2 2 2 3 4 4 4 4 4 4
6 6 6 5 2 1 3 5 8 9 8 5 4 3 1 2 2 1 1 1 1 2 3 3 1 3 4 2 3 4 4 4 4 2 2 2 1 2 1 1 1 1 4 4 1 2 3 3 2 3 4 3 5 6 6 6 5 4 4 4 3 2 2 3 3 1 1 2 3 3 3 2 2 2 1 0 1 1 1 2 3 4 4 4 4 5 5
6 5 3 1 3 4 5 8 8 7 5 3 2 1 1 1 1 1 1 2 2 1 0 2 1 2 3 4 1 3 4 4 4 4 3 2 1 2 2 2 1 1 4 4 1 1 3 5 3 3 5 3 4 8 8 7 7 6 5 5 4 3 2 3 4 3 2 3 3 3 4 3 2 1 1 1 1 1 0 2 2 3 3 3 2 3 4
6 5 3 3 5 6 7 7 6 4 3 2 1 1 1 1 1 1 2 3 2 2 1 2 3 1 2 2 3 3 3 3 3 3 3 1 1 1 3 2 1 1 4 3 1 0 3 4 3 5 6 3 5 9 8 7 8 7 6 6 6 5 4 4 4 5 4 4 3 4 3 2 1 1 1 1 2 2 2 2 2 2 3 2 2 3 4
6 6 6 6 7 7 6 4 2 1 1 2 1 1 1 1 1 2 2 1 1 1 1 1 3 2 3 3 3 2 3 4 3 2 2 1 1 1 3 2 1 2 4 3 2 2 4 4 3 5 7 3 6 9 8 7 8 8 7 7 6 6 6 5 5 6 5 4 3 4 3 1 0 1 0 1 0 1 2 2 2 2 3 3 3 4 3
7 7 7 6 5 4 2 1 0 1 1 1 0 1 1 2 2 2 1 1 0 1 1 1 1 1 0 1 2 0 2 2 1 2 2 1 0 1 2 2 2 3 3 3 3 3 5 5 4 6 7 3 5 7 6 7 8 8 8 8 8 7 7 7 7 6 5 4 3 4 3 2 2 2 2 2 1 2 2 2 0 2 4 4 4 4 3
5 4 4 3 2 2 2 1 1 0 1 1 1 1 2 3 3 3 1 1 1 1 2 2 3 3 1 1 1 1 0 1 0 1 2 2 1 1 2 2 3 3 3 3 4 4 5 5 5 6 8 4 4 6 5 6 7 7 7 8 8 8 9 8 7 6 6 5 4 4 4 4 3 3 4 3 2 2 3 2 1 1 3 5 6 5 2
4 1 1 2 2 2 1 0 1 1 1 1 2 3 3 3 1 2 1 2 2 2 2 2 3 4 3 1 0 1 0 1 0 1 2 2 2 3 3 3 3 3 3 4 5 5 5 6 6 6 8 7 5 7 7 6 6 7 7 8 8 9 9 9 8 6 6 6 6 6 5 5 5 5 5 4 3 4 4 3 2 3 4 5 6 5 3
1 1 2 2 1 2 1 1 1 2 2 3 3 3 2 3 3 5 4 4 3 2 3 3 3 4 4 3 2 1 1 1 2 2 2 3 3 3 3 3 3 3 3 5 5 5 6 7 6 6 9 10 5 7 8 6 6 6 7 7 8 9 9 9 8 8 7 7 7 7 6 6 6 6 5 4 4 5 4 3 3 4 5 6 6 7 6
1 1 1 1 1 1 2 2 2 2 1 1 2 2 3 4 3 2 2 3 4 3 3 3 3 3 4 3 3 3 2 3 3 3 2 3 4 3 2 3 4 4 4 5 6 6 6 7 7 7 9 10 4 6 8 6 5 6 6 7 8 9 10 9 9 9 9 9 8 8 8 7 7 6 5 5 6 6 5 4 5 4 4 5 7 7 7
1 1 1 0 0 2 3 3 3 3 2 2 2 1 2 2 3 1 2 3 3 3 3 3 3 3 3 2 3 4 4 3 3 3 3 3 3 3 3 4 4 4 4 6 7 7 6 7 8 6 5 6 3 2 4 4 5 6 6 7 8 9 10 10 10 10 10 10 9 8 8 8 7 6 7 6 6 6 6 6 6 5 5 6 7 7 7
1 1 1 1 2 3 3 3 4 4 3 3 2 0 1 4 3 1 4 2 2 3 3 3 3 4 3 3 3 4 4 3 3 3 3 3 3 3 4 5 5 5 5 6 7 7 7 8 8 4 2 4 2 2 3 4 5 5 6 7 8 9 10 11 11 11 11 10 9 10 10 9 8 8 8 8 7 7 7 7 6 6 7 7 7 7 7
1 2 2 2 3 3 3 4 4 4 4 4 3 2 3 4 2 3 4 2 2 2 2 3 3 3 3 3 3 4 4 4 4 4 5 5 5 5 5 6 6 6 5 6 7 8 7 8 9 6 1 3 3 4 5 6 6 5 6 8 10 10 11 12 13 12 12 11 11 10 10 10 9 9 9 9 8 7 6 6 7 7 8 8 8 7 8
1 2 3 4 4 4 4 3 4 4 4 4 3 2 2 3 1 4 4 3 3 3 3 4 3 3 3 4 4 3 3 3 4 5 6 5 4 5 7 7 7 6 7 8 8 8 8 8 9 8 6 4 4 4 5 6 8 7 7 9 12 12 12 13 14 14 13 13 13 12 12 11 10 10 9 9 8 7 7 8 9 9 9 9 9 8 8
1 2 3 3 4 5 5 4 4 5 4 5 5 5 4 2 0 3 4 2 2 4 4 4 4 4 5 4 3 3 3 3 4 6 6 5 4 6 7 7 7 7 8 9 9 8 9 9 9 9 9 9 8 7 5 5 6 9 9 10 11 12 12 12 14 14 14 14 14 14 13 13 12 11 10 9 7 6 7 8 9 9 8 7 7 8 9
Wind_Direction
358 358 358 359 359 359 359 360 358 350 349 357 342 317 278 238 225 161 159 172 186 206 246 239 239 254 223 208 238 245 230 258 47 43 351 6 62 14 287 260 195 211 202 279 259 153 228 255 252 274 265 249 256 265 281 286 297 327 7 44 18 338 292 263 85 291 271 262 258 260 261 263 255 254 282 262 199 173 248 264 247 281 317 23 209 128 57
359 359 359 0 360 360 0 1 1 355 352 354 338 313 263 249 237 150 170 191 206 229 241 237 255 272 263 238 228 223 263 281 80 73 321 351 39 259 258 296 263 218 220 241 215 210 238 225 223 273 270 271 277 265 242 291 323 48 27 16 337 299 312 7 25 330 289 261 244 268 306 336 312 275 276 275 242 184 249 286 232 251 353 357 311 137 124
2 1 1 2 0 0 1 1 3 359 351 350 333 285 281 280 257 150 181 203 216 237 244 256 274 285 294 279 246 223 243 94 109 132 142 90 275 256 165 268 278 48 351 278 223 224 274 265 250 273 74 316 294 305 317 285 18 65 37 333 301 296 312 323 339 339 354 309 270 317 354 350 309 272 262 285 281 164 192 289 266 283 4 351 320 34 129
4 3 3 4 2 1 1 1 4 2 350 345 296 266 288 284 244 193 177 192 217 242 256 274 272 273 312 297 261 241 225 131 133 147 121 94 236 48 66 320 321 66 356 290 259 258 331 347 337 342 31 351 312 338 337 342 35 51 37 325 309 284 299 8 83 302 308 324 270 267 288 288 292 297 304 310 292 190 171 274 301 358 339 326 6 65 67
6 5 4 6 4 4 2 0 4 4 352 338 283 260 262 271 285 317 170 193 218 235 235 246 252 237 20 300 264 251 233 163 145 153 124 114 101 48 57 356 338 8 351 313 320 347 351 14 26 6 347 347 1 336 327 31 26 357 356 3 339 285 303 50 132 209 253 283 254 238 257 257 258 271 281 296 291 279 260 281 190 117 301 318 78 98 329
8 7 6 8 7 7 5 2 3 5 356 331 286 264 241 256 328 11 315 258 242 250 256 278 277 203 194 249 261 256 238 186 145 113 76 79 52 8 52 35 4 21 25 357 334 342 353 18 25 6 335 343 10 330 311 38 23 347 22 37 6 323 338 345 303 251 242 259 252 233 249 256 259 280 294 285 303 338 320 286 182 161 251 257 274 297 341
10 9 8 9 10 10 8 5 5 5 359 306 258 293 296 298 35 4 300 281 268 286 310 317 308 257 250 274 264 255 255 195 127 94 74 56 355 342 57 49 37 65 62 20 321 351 357 2 9 4 336 325 353 337 312 22 28 15 43 46 15 349 7 355 335 314 292 285 283 273 272 280 317 335 329 302 313 349 329 325 14 323 279 300 321 332 29
13 11 10 9 11 12 11 9 8 8 6 326 260 20 6 339 1 351 316 286 279 316 321 307 307 314 294 279 251 242 251 171 107 80 94 126 238 334 60 64 46 86 99 160 246 6 296 274 282 321 327 316 325 346 315 346 18 22 40 45 21 1 348 360 355 335 312 298 286 273 278 300 339 341 332 323 325 344 349 2 17 350 330 358 7 10 40
15 13 12 10 11 12 12 13 11 12 16 8 357 34 12 330 303 307 309 288 293 320 315 293 272 249 271 279 284 287 284 88 104 159 148 134 154 168 133 142 154 95 120 175 235 229 243 253 244 236 256 272 266 277 297 292 317 16 45 37 8 355 336 353 9 342 311 303 298 297 307 319 334 358 357 348 349 7 12 18 26 15 356 355 9 21 21
17 16 14 13 13 12 13 14 12 14 22 20 2 13 6 344 323 322 301 280 290 295 301 305 272 263 270 358 310 302 270 125 133 183 135 68 151 142 129 147 149 118 139 189 248 251 265 281 268 239 235 241 236 229 238 245 244 231 138 156 289 316 330 356 24 331 319 344 350 338 325 318 337 24 10 355 5 23 26 30 29 24 15 4 13 20 3
18 17 16 15 16 14 14 15 14 15 20 17 350 357 9 356 329 332 310 269 303 331 338 8 345 299 290 354 337 318 293 130 39 326 78 343 302 69 70 134 148 126 217 246 263 271 279 280 268 255 249 251 248 235 225 227 230 228 179 159 223 245 228 279 100 249 317 3 14 350 317 293 355 27 13 7 22 32 39 44 31 25 25 20 17 13 3
19 17 16 16 17 17 15 15 15 16 17 10 341 347 8 351 308 296 294 265 345 42 38 21 342 297 301 349 27 340 326 75 56 312 17 338 311 83 97 252 77 88 240 259 277 287 284 271 258 251 249 256 259 249 237 226 208 190 176 116 58 249 221 259 249 217 304 356 35 8 324 26 112 54 23 19 28 37 59 70 44 27 22 18 14 8 358
19 16 15 15 16 17 16 15 15 14 13 11 355 347 7 356 321 289 303 286 1 47 37 332 254 277 317 351 11 339 338 32 43 275 59 16 316 357 71 7 19 31 303 293 291 289 289 288 276 253 253 284 277 272 289 293 127 118 190 135 131 235 219 193 265 223 251 287 100 98 328 61 94 61 25 16 21 25 39 67 46 26 17 13 7 1 355
18 15 14 13 14 16 16 14 14 11 10 11 359 339 7 6 346 313 327 330 344 30 43 25 289 296 350 6 358 339 326 331 342 329 10 7 293 309 345 10 11 341 315 309 290 274 284 317 316 291 319 340 270 280 354 355 23 41 295 163 164 220 223 174 247 239 224 255 251 171 149 58 55 34 14 6 6 0 353 63 47 24 13 8 360 356 359
15 12 11 11 11 14 14 13 13 10 8 10 3 347 12 9 352 309 315 341 26 2 42 117 266 303 360 38 20 332 301 308 26 355 334 331 312 303 308 353 8 333 303 292 282 279 306 342 318 307 1 7 307 321 27 7 358 350 337 43 111 169 298 270 250 234 224 259 268 251 188 134 40 16 3 356 349 345 333 220 48 14 1 357 355 356 356
11 8 8 8 9 12 12 12 11 9 7 8 7 1 10 7 357 309 290 294 179 342 10 184 204 246 347 32 196 236 280 333 13 326 325 329 302 298 311 344 352 317 298 294 291 294 308 298 286 307 51 62 306 303 340 334 359 338 332 30 60 49 4 331 272 247 244 256 267 295 270 142 29 0 352 346 331 331 329 298 26 8 350 338 343 359 359
7 5 4 4 6 9 10 9 9 8 7 6 2 351 358 5 360 327 285 275 195 155 299 207 184 174 215 270 240 253 278 310 321 308 315 307 290 301 317 314 282 294 314 320 312 308 324 302 287 320 86 128 252 245 244 322 12 7 348 34 47 31 9 351 282 270 299 288 277 340 87 58 357 340 338 340 322 302 288 264 3 27 353 328 334 357 4
5 3 1 1 2 5 7 8 7 7 7 6 2 353 360 4 359 342 298 271 227 117 49 4 47 130 209 227 156 125 210 202 270 309 276 261 289 307 315 331 355 342 324 321 315 311 316 304 307 350 65 26 320 324 277 306 333 14 17 45 61 24 348 279 237 318 1 337 324 84 121 14 342 336 340 340 317 278 252 305 325 8 350 316 336 357 3
0 359 358 359 358 0 3 5 6 6 6 6 6 2 5 9 3 356 341 301 295 91 53 13 34 57 12 358 129 38 295 193 172 314 292 324 332 299 301 348 23 3 328 320 328 322 309 316 346 0 49 40 344 312 266 314 349 35 39 57 64 4 317 311 32 5 353 341 14 71 102 19 342 335 345 351 331 273 15 341 318 340 347 354 20 12 3
353 354 355 356 355 356 360 2 4 5 5 6 6 354 349 7 6 0 0 341 324 79 62 25 33 46 37 36 44 29 19 22 16 4 7 14 329 297 292 4 20 356 350 349 342 331 330 347 359 352 7 28 2 315 311 9 47 40 27 41 43 3 338 13 31 356 329 4 45 59 88 9 349 342 358 18 17 2 317 324 348 8 354 358 44 41 15
345 347 350 351 351 352 355 359 1 3 4 6 6 355 349 1 1 357 353 330 308 38 59 28 31 47 52 46 40 37 38 33 19 7 350 334 327 329 357 39 326 322 0 13 357 342 345 354 0 357 4 23 346 305 309 332 76 47 28 31 31 11 354 8 34 15 347 7 41 35 312 343 358 6 27 34 25 2 334 348 21 24 349 343 17 45 40
339 340 343 346 348 349 351 354 357 360 2 5 7 6 359 355 354 354 345 311 288 30 52 30 42 56 60 53 46 45 47 41 30 17 358 337 337 18 47 37 353 8 19 9 7 9 339 329 346 355 340 332 307 297 309 319 66 51 39 44 43 28 33 54 49 49 55 67 74 38 303 326 14 38 42 29 19 6 1 14 27 24 10 4 11 28 40
334 334 337 341 343 344 347 349 352 357 1 3 4 2 355 352 354 356 348 317 256 146 326 212 129 89 60 46 43 48 51 45 35 28 19 355 343 56 76 32 354 17 36 13 0 357 319 309 333 345 328 337 341 316 322 358 46 58 51 67 83 56 61 70 69 99 113 96 71 68 30 4 22 47 50 35 28 16 11 18 21 19 26 27 21 20 26
332 330 332 336 338 340 343 345 349 353 357 2 5 359 350 354 359 356 350 346 351 267 320 28 56 50 32 23 20 33 39 35 31 30 22 4 353 38 70 32 359 10 27 5 337 320 313 309 315 312 315 354 352 325 337 22 50 62 68 93 73 24 22 37 58 97 130 86 50 55 59 18 6 29 44 35 34 32 25 18 13 17 31 37 37 33 27
332 330 328 331 335 337 339 341 345 349 352 358 6 4 359 4 3 358 353 352 344 319 15 64 54 23 357 354 11 24 25 16 20 31 25 22 31 40 34 24 16 11 358 335 321 331 334 321 310 306 331 22 3 328 345 31 43 49 57 58 23 347 340 42 75 67 61 71 65 75 93 53 9 22 30 23 27 34 35 30 22 22 28 33 38 41 38
331 329 326 328 332 334 337 339 342 346 348 353 0 3 3 6 8 11 13 349 320 290 255 80 77 35 5 37 30 20 23 16 20 36 37 41 59 60 35 18 4 332 304 299 334 354 326 312 328 332 349 23 359 327 351 42 51 60 58 34 350 268 302 53 94 98 82 74 56 53 92 79 27 30 32 27 28 35 38 38 34 28 25 25 30 35 38
326 327 326 326 329 333 335 336 339 343 345 350 357 358 355 4 15 22 20 353 327 290 240 66 77 65 45 53 35 9 32 28 15 31 45 49 62 51 22 8 347 330 330 341 356 341 302 307 339 342 349 8 353 329 351 54 64 71 64 28 8 14 13 19 68 96 79 32 352 12 38 69 17 25 34 32 29 36 39 37 35 35 30 25 25 27 32
321 324 325 324 327 333 333 334 340 342 341 346 350 340 330 9 20 20 18 10 352 327 318 1 79 127 70 35 14 16 40 30 10 13 15 25 46 29 1 358 340 332 356 9 346 320 320 339 351 356 6 13 354 326 335 64 79 74 56 32 31 38 26 17 35 64 64 74 48 48 80 117 33 27 40 41 34 37 40 32 26 31 34 33 34 29 27
318 322 325 325 326 330 330 334 341 341 342 347 343 313 277 104 24 9 11 14 360 324 301 301 3 125 88 13 6 24 49 45 18 10 1 4 15 340 312 344 342 338 358 4 329 321 343 354 351 11 30 15 327 318 331 17 74 70 35 43 66 71 52 42 52 70 74 76 78 86 107 114 93 69 62 58 45 39 43 36 25 26 32 38 41 38 33
318 322 325 324 324 326 329 334 341 349 352 347 326 276 220 126 26 359 2 5 360 338 305 300 1 71 82 21 356 1 33 52 31 9 24 33 346 309 318 43 16 328 324 317 321 335 348 345 338 24 59 34 343 318 321 352 75 87 348 30 68 76 67 58 51 52 71 83 89 90 94 102 105 95 78 72 62 49 46 43 35 29 32 39 43 40 36
320 322 322 322 322 322 325 333 345 1 4 356 339 297 156 88 347 345 349 355 357 334 294 294 4 114 139 108 336 330 7 49 43 359 30 34 319 335 21 18 343 325 334 338 338 335 344 353 334 350 54 53 4 301 309 342 54 80 308 10 63 66 61 63 54 47 63 87 96 79 74 88 101 88 71 67 64 58 55 65 73 72 42 41 47 46 40
324 323 321 320 316 316 324 339 351 5 14 17 21 43 42 346 332 333 340 349 348 308 288 314 359 120 123 105 114 354 2 18 245 244 51 22 346 4 34 351 341 26 26 359 324 323 356 10 329 329 22 35 302 293 334 14 51 164 247 43 71 65 53 54 56 55 57 62 78 94 90 76 67 65 60 45 34 28 19 25 41 33 348 26 47 45 37
326 323 318 315 312 314 324 339 351 2 6 8 20 77 333 335 333 332 339 349 331 287 295 326 321 115 63 82 115 75 333 297 246 203 105 42 359 336 267 345 355 44 101 279 305 323 348 331 308 318 358 273 273 306 26 63 90 142 147 91 76 79 81 68 60 61 58 51 55 83 91 78 69 65 60 45 32 27 17 6 4 359 2 27 42 34 25
325 322 316 311 310 314 325 349 6 343 320 311 348 146 317 326 330 330 340 348 312 264 275 305 288 306 80 181 143 59 328 308 316 94 82 64 9 311 305 76 53 261 154 2 333 310 281 294 321 315 283 229 245 353 8 126 133 129 120 108 97 104 108 89 73 73 78 80 87 90 88 90 97 97 86 76 67 51 30 13 11 16 26 40 37 22 17
326 326 321 313 306 318 39 32 330 294 283 302 30 333 312 317 323 328 346 355 306 259 260 247 255 278 268 192 127 58 339 323 8 29 24 66 62 317 343 28 281 287 74 30 292 275 252 92 11 312 296 247 116 313 304 127 121 115 106 101 92 80 85 78 67 64 64 66 83 101 113 125 123 110 89 67 56 46 30 19 21 25 30 36 27 15 16
337 336 330 347 159 227 234 270 323 306 301 325 323 309 305 311 316 320 338 337 284 285 321 296 273 308 334 37 81 56 319 294 203 134 7 32 169 353 356 319 283 347 30 303 280 279 252 88 354 293 289 284 231 178 96 101 113 110 91 80 79 93 107 89 73 77 80 71 70 90 108 102 80 70 66 56 47 35 22 19 22 21 20 19 13 10 19
351 335 302 233 223 248 242 130 67 355 320 309 304 301 298 297 290 279 270 254 238 234 281 295 312 359 359 24 68 41 320 308 236 160 83 17 359 37 12 311 314 13 331 271 265 279 77 88 304 284 281 286 81 91 89 90 103 112 112 110 111 120 117 107 94 102 109 108 111 113 106 97 84 71 69 70 60 36 19 16 15 10 14 19 14 12 14
349 325 289 258 242 237 74 54 357 322 311 307 306 299 268 236 245 228 201 216 197 181 239 271 298 11 322 320 60 19 341 323 304 318 80 39 331 3 11 304 341 9 295 276 283 22 354 302 260 274 274 175 134 131 123 116 109 111 124 131 109 99 109 120 136 163 131 114 115 103 94 98 92 67 46 47 58 43 8 359 10 8 11 18 10 3 9
336 309 277 259 257 40 7 331 323 321 316 306 299 292 249 224 252 254 211 224 201 187 238 262 358 22 346 344 71 50 8 330 313 338 67 66 338 346 346 319 21 356 288 288 51 63 291 270 238 251 257 217 170 157 144 137 136 134 133 127 117 115 125 125 130 152 130 82 71 57 51 57 65 56 20 345 77 71 347 15 23 5 4 22 11 349 351
341 317 296 342 15 2 327 315 318 322 313 293 274 293 298 285 294 329 316 256 232 200 297 319 22 42 349 318 359 54 29 342 327 345 21 50 29 348 322 315 19 337 285 281 95 105 282 290 282 264 273 261 163 152 150 148 147 145 142 145 148 155 145 124 121 129 123 108 104 92 79 69 52 38 25 353 348 347 30 46 27 355 356 31 31 324 326
357 344 344 346 330 322 319 313 306 301 306 320 343 331 300 310 342 327 283 270 246 146 96 315 302 119 104 327 334 36 43 10 349 339 335 3 74 327 300 303 14 299 278 283 30 76 270 280 274 269 286 307 134 149 159 156 153 157 163 161 159 162 160 151 151 163 165 154 141 130 113 90 50 46 42 352 344 359 359 359 5 354 346 340 303 297 318
15 2 346 319 300 300 311 308 284 279 5 352 334 314 296 291 277 248 236 267 332 49 95 334 328 26 60 354 330 19 37 11 354 295 287 353 83 302 295 301 282 261 268 286 325 300 271 273 269 271 281 262 153 160 171 165 161 167 168 160 163 176 180 176 179 184 187 187 164 140 128 116 48 21 332 270 279 350 326 322 330 321 309 305 299 301 323
11 355 338 316 291 292 314 320 299 38 15 335 317 342 298 262 254 252 213 179 262 328 87 72 333 326 140 281 298 59 71 21 338 276 286 330 69 255 285 283 262 263 275 286 284 272 271 271 264 273 286 271 151 162 181 174 166 170 170 167 175 189 190 192 196 193 190 196 181 155 156 187 204 226 264 264 247 258 253 230 281 330 322 315 299 291 306
335 317 310 312 321 338 348 17 129 57 326 249 222 210 220 223 217 216 209 151 119 58 43 26 346 335 1 69 6 344 122 123 146 280 288 289 267 253 259 254 255 272 292 287 275 272 276 275 264 271 281 273 161 171 198 186 168 170 173 173 182 195 199 200 202 196 189 191 183 177 196 214 212 223 240 234 227 262 260 230 199 267 283 279 275 274 275
300 276 330 349 349 331 321 175 198 229 221 224 233 234 245 252 213 130 70 19 22 31 26 17 355 337 331 336 317 286 277 113 155 258 273 282 268 255 249 257 276 292 289 277 273 271 269 271 271 272 275 264 208 184 189 185 172 175 181 182 188 199 204 203 201 200 199 196 192 196 209 219 221 225 226 218 218 245 255 249 238 251 268 279 287 293 301
308 4 349 347 339 302 270 182 208 229 208 207 230 249 291 340 33 62 41 353 353 25 24 9 351 323 311 311 313 294 269 274 266 260 265 270 260 252 255 270 278 274 265 264 268 267 268 276 283 286 287 285 256 170 163 173 180 183 190 193 193 201 209 208 204 207 209 204 201 205 211 220 230 231 224 216 222 231 236 248 265 277 295 304 306 307 305
3 329 309 2 32 265 236 216 235 259 264 270 283 326 16 11 13 34 18 355 5 14 354 335 318 295 285 290 288 272 261 264 265 259 255 261 261 261 266 260 254 250 250 255 257 259 269 281 286 285 289 293 283 143 147 172 190 191 200 204 198 203 211 211 209 214 216 210 206 212 217 219 226 233 233 229 229 229 231 239 243 248 264 278 283 286 285
350 291 270 24 222 234 227 234 253 262 262 270 286 358 26 327 295 284 86 57 22 351 330 331 326 304 279 260 263 269 269 270 265 252 241 246 257 257 250 245 243 240 239 249 260 268 276 283 289 304 332 345 4 118 161 191 204 209 218 216 205 207 217 218 215 220 225 219 211 216 221 218 216 224 233 236 235 236 238 237 233 237 254 265 273 279 279
324 285 266 270 268 265 262 267 277 283 276 254 236 186 294 280 275 96 93 78 6 346 341 332 318 303 295 298 291 277 262 254 255 252 237 230 235 243 244 246 247 242 237 249 266 275 279 282 285 298 49 64 29 305 258 234 221 221 233 236 226 218 220 224 223 224 227 226 219 219 222 221 218 224 232 234 235 241 242 233 228 237 251 257 261 266 272
292 276 266 256 261 268 266 256 259 272 274 258 225 196 233 261 291 67 66 9 333 342 315 279 262 258 273 280 278 269 257 248 248 252 247 237 234 237 241 243 246 250 255 264 271 277 284 289 290 290 260 177 214 254 274 274 260 234 230 244 247 235 226 229 233 233 232 233 231 229 229 225 222 229 237 238 239 244 245 241 242 248 254 259 261 263 269
285 261 258 257 260 272 284 285 278 278 284 292 299 291 253 243 177 80 67 15 324 308 289 275 264 257 253 245 238 247 262 255 242 245 250 248 243 244 247 247 249 256 265 270 275 283 290 291 294 305 319 311 271 252 262 281 288 276 247 241 247 247 240 237 238 238 237 236 235 237 240 240 238 240 244 243 243 248 252 257 260 256 251 251 254 258 265
247 258 274 273 265 268 279 285 286 288 291 297 306 320 329 325 19 88 82 56 299 283 290 297 288 271 261 254 248 253 264 260 246 245 246 243 241 247 254 258 263 267 273 278 283 286 289 295 307 324 334 330 317 296 263 252 275 284 274 259 253 252 250 247 246 246 244 240 236 237 241 244 248 253 256 254 252 255 260 266 268 263 254 251 253 257 265